Preview of NWS' New Version of Forecast
This preview is not operational and should not be used for support decisions.

Regional Weather Roundup (RWR)

Issued by National Weather Service (NWS)

                            
000
ASUS43 KLSX 210857
RWRMO 

WEATHER SUMMARY FOR MISSOURI
NATIONAL WEATHER SERVICE SPRINGFIELD MO
400 AM CDT SUN JUL 21 2019

NOTE: "FAIR" INDICATES FEW OR NO CLOUDS BELOW 12,000 FEET WITH NO
       SIGNIFICANT WEATHER AND/OR OBSTRUCTIONS TO VISIBILITY.
       CURRENT SKY AND/OR WEATHER CONDITIONS ARE NOT AVAILABLE FOR
       CHILLICOTHE AND FARMINGTON.

MOZ001>031-035>038-043-044-053-054-211000-
...NORTHERN AND WESTERN MISSOURI...
  
CITY           SKY/WX    TMP DP  RH WIND       PRES   REMARKS
KANSAS CTY INT LGT RAIN  70  69  97 S13       30.01F                  
KANSAS C DTWN  LGT RAIN  72  69  90 SE9       30.00F FOG              
LEE'S SUMMIT   TSTM      69  67  93 E7        30.04R FOG              
ST JOSEPH      CLOUDY    72  68  87 E13       29.96F                  
CHILLICOTHE      N/A     71  70  96 S8G20     29.98F                  
     
$$
MOZ066>068-077>081-088>096-101>105-211000-
...SOUTHWEST MISSOURI...
  
CITY           SKY/WX    TMP DP  RH WIND       PRES   REMARKS
SPRINGFIELD    MOCLDY    76  71  85 S3        29.98F                  
JOPLIN         CLEAR     78  72  81 S8        29.95R                  
               
$$
MOZ032>034-039>042-045>050-055>058-069>072-211000-
...CENTRAL MISSOURI...  
  
CITY           SKY/WX    TMP DP  RH WIND       PRES   REMARKS
COLUMBIA       NOT AVBL                                               
ROLLA          CLEAR     73  67  81 W7        29.96S                  
SEDALIA        LGT RAIN  68 N/A N/A CALM      29.99F                  
WARRENSBURG    RAIN      68  68 100 E7        30.00R                  
               
$$
MOZ051-052-059>065-211000-
...EAST CENTRAL MISSOURI...
  
CITY           SKY/WX    TMP DP  RH WIND       PRES   REMARKS
ST LOUIS INTL  MOCLDY    81  73  76 SW7       29.87F                  
                   
$$
MOZ072>076-082>087-097>100-106>115-211000-
...SOUTH CENTRAL AND SOUTHEAST MISSOURI...
  
CITY           SKY/WX    TMP DP  RH WIND       PRES   REMARKS
CAPE GIRARDEAU FAIR      79  75  87 S3        29.91S                  
POPLAR BLUFF   FAIR      78  78 100 S6        29.92S                  
WEST PLAINS    PTCLDY    75  72  90 SW5       29.99S                  
                                       
$$